Tracking 17844 objects as of 25-August-2016
HD Live streaming from Space Station
objects crossing your sky now

COSMOS 2378

Track COSMOS 2378 now!
10-day predictions
COSMOS 2378 is classified as:


NORAD ID: 26818
Int'l Code: 2001-023A
Perigee: 969.1 km
Apogee: 1,016.3 km
Inclination: 82.9 °
Period: 104.8 minutes
Semi major axis: 7363 km
RCS: 1.9621 m2 (large)
Launch date: June 8, 2001
Source: Commonwealth of Independent States (former USSR) (CIS)
Launch site: PLESETSK MISSILE AND SPACE COMPLEX (PKMTR)

Normally part of a six-satellite constellation.
Your satellite tracking list
Your tracking list is empty





NASA's NSSDC Master Catalog

Two Line Element Set (TLE):
1 26818U 01023A   16237.27159847  .00000122  00000-0  11443-3 0  9994
2 26818  82.9319 357.3593 0032054 307.0983  52.7210 13.73902824762762
Source of the keplerian elements: AFSPC

N2YO: 587